Regional Weather Roundup
Issued by NWS

Current Version | Previous Version | Text Only | Print | Product List | Glossary On
Versions: 1 2 3 4 5 6 7 8 9 10 11 12 13 14 15 16 17 18 19 20 21 22 23 24 25 26 27 28 29 30 31 32 33 34 35 36 37 38 39 40 41 42 43 44 45 46 47 48 49 50
000
ASUS43 KOAX 312010
RWRNE

WEATHER ROUNDUP FOR NEBRASKA
NATIONAL WEATHER SERVICE OMAHA NE
300 PM CDT SUN MAY 31 2020

NOTES: SATELLITE DATA IS BEING USED TO AUGMENT CLOUD COVER ABOVE
       12000 FEET.
       "FAIR" INDICATES FEW OR NO CLOUDS BELOW 12,000 FEET WITH NO
       SIGNIFICANT WEATHER AND/OR OBSTRUCTIONS TO VISIBILITY.


NEZ001>004-019>022-054>056-312100-
NEBRASKA PANHANDLE

CITY           SKY/WX    TMP DP  RH WIND       PRES   REMARKS
SCOTTSBLUFF    FAIR      88  57  34 CALM      29.97F
ALLIANCE       FAIR      83  61  47 SE14G21   29.98F
CHADRON        FAIR      87  59  38 S10G21    29.91F
GORDON         FAIR      82  61  49 S9        29.96F
KIMBALL        FAIR      87  43  21 N3        30.04F
SIDNEY         FAIR      87  48  25 S10       30.01F
$$

NEZ057>060-069>072-079>082-312100-
SOUTHWEST NEBRASKA

CITY           SKY/WX    TMP DP  RH WIND       PRES   REMARKS
NORTH PLATTE   FAIR      86  62  44 S12       29.98F
IMPERIAL       FAIR      88  57  34 SE10G26   29.99F
LEXINGTON      FAIR      79  59  49 S20G30    30.01F
MCCOOK         FAIR      88  58  36 S20G30    29.98F
OGALLALA       FAIR      84  57  39 SE10      29.98F
$$

NEZ005>010-023>029-035>040-094-312100-
NORTH CENTRAL NEBRASKA

CITY           SKY/WX    TMP DP  RH WIND       PRES   REMARKS
VALENTINE      FAIR      83  61  47 SE24G31   29.94F
AINSWORTH      FAIR      80  64  58 S14       29.98F
BROKEN BOW     FAIR      87  60  40 S18G32    29.99F
O`NEILL        FAIR      80  58  46 S21G32    30.01F
ORD            FAIR      82  59  45 S23G31    30.00F
THEDFORD       FAIR      84  61  46 S13G25    29.98F
$$

NEZ041-046>049-061>064-073>077-083>087-312100-
SOUTH CENTRAL NEBRASKA

CITY           SKY/WX    TMP DP  RH WIND       PRES   REMARKS
GRAND ISLAND   FAIR      80  57  45 S22G33    30.06F
AURORA         FAIR      83  59  44 S20G32    30.06F
HASTINGS       FAIR      80  58  46 S20G37    30.07F
HEBRON         FAIR      79  55  43 S17G24    30.10F
HOLDREGE       FAIR      80  57  45 S16G25    30.04F
KEARNEY        FAIR      80  60  50 S23G31    30.04F
YORK           FAIR      81  57  44 S22G31    30.07F
$$

NEZ011>018-030>034-042>045-312100-
NORTHEAST NEBRASKA

CITY           SKY/WX    TMP DP  RH WIND       PRES   REMARKS
NORFOLK        FAIR      78  60  53 SE22G36   30.06F
ALBION         FAIR      82  59  45 S22G29    30.04F
BLAIR          FAIR      75  56  51 SE17G24   30.14F
COLUMBUS       FAIR      81  61  50 SE25G32   30.06F
FREMONT        FAIR      76  63  63 SE22G28   30.12F
TEKAMAH        FAIR      76  58  53 SE24G37   30.13F
WAYNE          FAIR      76  57  51 S22G32    30.09F
$$

NEZ050>053-065>068-078-088>093-312100-
SOUTHEAST NEBRASKA

CITY           SKY/WX    TMP DP  RH WIND       PRES   REMARKS
LINCOLN        FAIR      82  58  43 SE22G30   30.11F
OMAHA EPPLEY   FAIR      76  58  53 SE21G32   30.15F
BEATRICE       FAIR      83  59  45 S22G28    30.11F
FALLS CITY     FAIR      78  59  51 S14G24    30.16F
NEBRASKA CITY  FAIR      75  63  66 SE16G22   30.17F
PLATTSMOUTH    FAIR      76  60  56 SE17G25   30.16F
$$

NEZ044-045-051>053-067-312100-
OMAHA AREA

CITY           SKY/WX    TMP DP  RH WIND       PRES   REMARKS
OMAHA EPPLEY   FAIR      76  58  53 SE21G32   30.15F
BLAIR          FAIR      75  56  51 SE17G24   30.14F
FREMONT        FAIR      76  63  63 SE22G28   30.12F
MILLARD        FAIR      78  59  53 SE16G22   30.14F
OFFUTT AFB     FAIR      76  60  57 SE21G26   30.15F
PLATTSMOUTH    FAIR      76  60  56 SE17G25   30.16F
WAHOO          FAIR      77  62  60 SE24G32   30.12F
$$



USA.gov is the U.S. government's official web portal to all federal, state and local government web resources and services.